This is the latest recevied weather packets stored in our database for station/object DK8RG-15. If no packets are shown the sender has not sent any weather packets the latest 10 day(s).
| Time | Temp. | Humidity | Pressure | Rain* | Wind** | Luminosity | Snow |
|---|---|---|---|---|---|---|---|
| 1777879818 | 17.22° C | 54% | 1012 hPa | 0 mm | - | - | - |
| 1777879218 | 17.22° C | 55% | 1012 hPa | 0 mm | - | - | - |
| 1777878618 | 17.22° C | 56% | 1012 hPa | 0 mm | - | - | - |
| 1777878018 | 17.22° C | 57% | 1012.1 hPa | 0 mm | - | - | - |
| 1777877418 | 16.67° C | 57% | 1011.1 hPa | 0 mm | - | - | - |
| 1777876818 | 16.11° C | 59% | 1012.1 hPa | 0 mm | - | - | - |
| 1777876219 | 15.56° C | 61% | 1012.1 hPa | 0 mm | - | - | - |
| 1777875619 | 15° C | 62% | 1012.1 hPa | 0 mm | - | - | - |
| 1777875019 | 13.89° C | 63% | 1011 hPa | 0 mm | - | - | - |
| 1777874419 | 13.89° C | 64% | 1011.1 hPa | 0 mm | - | - | - |
| 1777873819 | 13.89° C | 65% | 1011.1 hPa | 0 mm | - | - | - |
| 1777873219 | 13.89° C | 66% | 1011.2 hPa | 0 mm | - | - | - |
| 1777872619 | 13.33° C | 67% | 1011.1 hPa | 0 mm | - | - | - |
| 1777872019 | 12.78° C | 67% | 1011.1 hPa | 0 mm | - | - | - |
| 1777871419 | 12.78° C | 67% | 1011.1 hPa | 0 mm | - | - | - |
| 1777870820 | 12.22° C | 69% | 1011.1 hPa | 0 mm | - | - | - |
| 1777870219 | 12.22° C | 72% | 1011.2 hPa | 0 mm | - | - | - |
| 1777869619 | 11.67° C | 72% | 1011.2 hPa | 0 mm | - | - | - |
| 1777869019 | 11.11° C | 73% | 1011.1 hPa | 0 mm | - | - | - |
| 1777868419 | 11.11° C | 73% | 1011.1 hPa | 0 mm | - | - | - |
| 1777867819 | 11.11° C | 72% | 1011.1 hPa | 0 mm | - | - | - |
| 1777867219 | 11.11° C | 72% | 1011.2 hPa | 0 mm | - | - | - |
| 1777866619 | 11.67° C | 72% | 1011.2 hPa | 0 mm | - | - | - |
| 1777866019 | 12.22° C | 72% | 1011.2 hPa | 0 mm | - | - | - |
| 1777865419 | 12.22° C | 72% | 1011.2 hPa | 0 mm | - | - | - |
* Rain latest hour (hover to see other rain measurements)
** Current wind speed in m/s (hover to see current wind gust speed)